User: anonymous   Login
Location: Unspecified
(0.0000°N, 0.0000°E)
Time: 19:13:45
(UTC+00:00)
Language:

TIANMU-1 06 - Orbit

View from above orbital plane
View from above orbital plane
View from above satellite
View from above satellite

Ground track
Ground track

The orbit is defined by the following mean orbital elements,

1 55976U          26145.60419603 +.00000000 +00000-0 +28735-3 0 00000
2 55976  97.5219 318.9394 0003369 170.8439 189.2873 15.47036724    04
Epoch (UTC): 25 May 2026 14:30:02
Eccentricity: 0.0003369
inclination: 97.5219°
perigee height: 423 km
apogee height: 428 km
right ascension of ascending node: 318.9394°
argument of perigee: 170.8439°
revolutions per day: 15.47036724
mean anomaly at epoch: 189.2873°

The dashed part of the orbit path shows where the satellite is in the earth's shadow,  

DLR